User: anonymous   Login
Location: Wells
(51.2093°N, 2.6446°W)
Time: 05:02:36
(UTC+00:00)
Language:

Oscar 11 - Orbit

View from above orbital plane
View from above orbital plane
View from above satellite
View from above satellite

Ground track
Ground track

The orbit is defined by the following mean orbital elements,

1 14781U          26066.79391382 +.00000000 +00000-0 +28120-3 0 00002
2 14781  97.7951  33.5882 0008269 148.9328 211.2380 14.90499739    02
Epoch (UTC): 07 March 2026 19:03:14
Eccentricity: 0.0008269
inclination: 97.7951°
perigee height: 591 km
apogee height: 602 km
right ascension of ascending node: 33.5882°
argument of perigee: 148.9328°
revolutions per day: 14.90499739
mean anomaly at epoch: 211.2380°

The dashed part of the orbit path shows where the satellite is in the earth's shadow,  

DLR